West Columbia, SC

3:22 PM EST on December 02, 2016 (GMT -0500)
Columbia Metro

Weather History for KCAE - March, 2013

Change the Weather History Date:

Thursday, March 21, 2013

  Actual Average Record
Temperature  
Mean Temperature 45 °F 57 °F  
Max Temperature 57 °F 70 °F 89 °F (1935)
Min Temperature 33 °F 44 °F 24 °F (1965)
Degree Days  
Heating Degree Days 20 9  
Month to date heating degree days 281 234  
Since 1 July heating degree days 2001 2333  
Cooling Degree Days 0 1  
Month to date cooling degree days 10 9  
Year to date cooling degree days 35 13  
Moisture  
Dew Point 18 °F    
Average Humidity 45    
Maximum Humidity 75    
Minimum Humidity 15    
Precipitation  
Precipitation 0.00 in 0.11 in 2.49 in (1970)
Month to date precipitation 1.30 2.60  
Year to date precipitation 8.02 9.79  
Sea Level Pressure  
Sea Level Pressure 29.86 in    
Wind  
Wind Speed 10 mph (WNW)    
Max Wind Speed 21 mph    
Max Gust Speed 28 mph    
Visibility 10 miles    
Events      
T = Trace of Precipitation, MM = Missing Value Source: NWS Daily Summary

Daily Weather History Graph

Daily Weather History Graph

Search for Another Location

Airport or City:

Trip Planner

Search our weather history database for the weather conditions in past years. The results will help you decide how hot, cold, wet, or windy it might be!

Date:

Astronomy

Mar. 21, 2013 Rise Set
Actual Time 7:26 AM EDT 7:37 PM EDT
Civil Twilight 7:01 AM EDT 8:02 PM EDT
Nautical Twilight 6:32 AM EDT 8:31 PM EDT
Astronomical Twilight 6:03 AM EDT 9:00 PM EDT
Moon 2:18 PM EDT (3/21) 3:33 AM EDT (3/21)
Length of Visible Light 13h 00m
Length of Day
12h 10m
Waxing Gibbous, 68% of the Moon is Illuminated
Mar 21
Waxing Gibbous
Mar 27
Full
Apr 3
Last Quarter
Apr 10
New
Apr 18
First Quarter

Hourly Weather History & Observations

Time (EDT) Temp. Windchill Dew Point Humidity Pressure Visibility Wind Dir Wind Speed Gust Speed Precip Events Conditions
12:56 AM 43.0 °F 38.8 °F 25.0 °F 49% 29.82 in 10.0 mi West 6.9 mph - N/A   Clear
1:56 AM 50.0 °F - 23.0 °F 35% 29.81 in 10.0 mi WNW 12.7 mph - N/A   Clear
2:56 AM 48.9 °F - 24.1 °F 38% 29.82 in 10.0 mi NW 15.0 mph 20.7 mph N/A   Clear
3:56 AM 46.0 °F 41.0 °F 25.0 °F 44% 29.83 in 10.0 mi NW 10.4 mph - N/A   Clear
4:56 AM 43.0 °F 39.5 °F 27.0 °F 53% 29.84 in 10.0 mi NW 5.8 mph - N/A   Clear
5:56 AM 39.0 °F 36.8 °F 27.0 °F 62% 29.85 in 10.0 mi West 3.5 mph - N/A   Clear
6:56 AM 36.0 °F 32.1 °F 27.0 °F 70% 29.86 in 10.0 mi West 4.6 mph - N/A   Clear
7:56 AM 35.1 °F 31.0 °F 28.0 °F 76% 29.87 in 10.0 mi West 4.6 mph - N/A   Clear
8:56 AM 41.0 °F 39.0 °F 28.9 °F 62% 29.88 in 10.0 mi West 3.5 mph - N/A   Scattered Clouds
9:56 AM 45.0 °F 39.3 °F 21.0 °F 39% 29.88 in 10.0 mi WNW 11.5 mph 16.1 mph N/A   Mostly Cloudy
10:56 AM 46.0 °F 40.6 °F 19.0 °F 34% 29.88 in 10.0 mi WNW 11.5 mph 19.6 mph N/A   Mostly Cloudy
11:56 AM 48.9 °F - 17.1 °F 28% 29.88 in 10.0 mi WNW 16.1 mph 20.7 mph N/A   Mostly Cloudy
12:56 PM 50.0 °F - 12.9 °F 23% 29.86 in 10.0 mi NW 12.7 mph 19.6 mph N/A   Scattered Clouds
1:56 PM 52.0 °F - 12.0 °F 20% 29.85 in 10.0 mi NW 10.4 mph 16.1 mph N/A   Scattered Clouds
2:56 PM 54.0 °F - 14.0 °F 21% 29.83 in 10.0 mi West 10.4 mph 20.7 mph N/A   Scattered Clouds
3:56 PM 55.9 °F - 10.9 °F 17% 29.82 in 10.0 mi West 17.3 mph 20.7 mph N/A   Scattered Clouds
4:56 PM 57.0 °F - 10.9 °F 16% 29.82 in 10.0 mi West 18.4 mph 24.2 mph N/A   Scattered Clouds
5:56 PM 55.0 °F - 9.0 °F 16% 29.83 in 10.0 mi West 17.3 mph 24.2 mph N/A   Scattered Clouds
6:56 PM 53.1 °F - 9.0 °F 17% 29.85 in 10.0 mi WNW 15.0 mph - N/A   Scattered Clouds
7:56 PM 51.1 °F - 10.9 °F 20% 29.87 in 10.0 mi WNW 8.1 mph - N/A   Scattered Clouds
8:56 PM 46.9 °F - 14.0 °F 27% 29.89 in 10.0 mi West 4.6 mph - N/A   Scattered Clouds
9:56 PM 46.9 °F - 16.0 °F 29% 29.93 in 10.0 mi North 3.5 mph - N/A   Clear
10:56 PM 44.1 °F 40.8 °F 15.1 °F 31% 29.94 in 10.0 mi North 5.8 mph - N/A   Scattered Clouds
11:56 PM 43.0 °F 40.3 °F 16.0 °F 34% 29.97 in 10.0 mi North 4.6 mph - N/A   Scattered Clouds